Location: Cors
(42.0957°N, 2.7884°E)
Time: 12:56:47
(UTC+00:00)

Daily predictions for brighter satellites

Satellite Brightness Start Highest point End
(mag) Time Altitude Azimuth Time Altitude Azimuth Time Altitude Azimuth
BREEZE-M DEB (TANK) 4.1 19:24:22 10° WNW 19:28:40 65° N 19:35:31 10° E
Cosmos 968 Rocket 3.7 19:30:39 10° SSW 19:35:54 80° WNW 19:41:10 10° NNE
NOSS 3-3 (A) 4.3 19:31:31 10° S 19:36:38 37° ESE 19:42:19 10° NE
NOSS 3-3 (C) 4.3 19:31:38 10° S 19:36:45 37° ESE 19:42:25 10° NE
Intercosmos 24 4.2 19:36:20 10° SSE 19:39:53 38° E 19:43:13 10° NNE
Cosmos 1354 Rocket 4.4 19:35:13 10° S 19:40:06 42° ESE 19:45:01 10° NNE
S3M 4.1 19:35:58 10° S 19:42:12 60° E 19:48:25 10° NNE
Helios 1A Rocket 4.0 19:39:46 10° S 19:43:46 47° W 19:47:46 10° NNW
OBJECT-B 0.9 19:42:16 10° S 19:45:29 76° W 19:48:44 10° NNW
Sich 1 3.4 19:41:27 10° N 19:45:40 47° ENE 19:49:53 10° SSE
IRS-1A Rocket 4.4 19:44:25 10° SSE 19:50:09 74° ENE 19:56:01 10° N
BREEZE M DEB (TANK) 4.3 19:49:38 10° WNW 19:55:57 31° NNW 19:58:35 10° NE
Cosmos 1553 Rocket 4.3 19:52:59 10° SSW 19:59:04 71° W 20:05:19 10° N
Cosmos 2082 Rocket 4.2 19:56:48 10° NNE 19:59:43 14° NE 20:02:37 10° ENE
Cosmos 1151 Rocket 3.6 19:56:42 10° SSE 20:00:41 37° E 20:04:44 10° NNE
SPOT 3 Rocket 4.0 19:56:54 12° SE 20:01:21 45° ENE 20:06:15 10° N
Cosmos 1437 Rocket 3.6 19:57:57 10° SSW 20:01:45 54° WNW 20:05:39 10° N
X-37B 0.8 19:59:03 10° WNW 20:02:14 69° NNE 20:04:43 15° E
Cosmos 2084 3.4 20:00:57 10° SSW 20:04:57 55° ESE 20:09:05 10° NE
Resurs 01 Rocket 1.9 20:02:15 13° SE 20:05:58 51° ENE 20:10:18 10° N
COSMOS 2406 4.4 20:01:52 10° N 20:06:41 28° NE 20:10:34 14° ESE
USA 186 4.1 20:07:13 10° SW 20:08:49 15° W 20:10:24 10° NW
USA 290 2.2 20:05:55 10° NNW 20:09:10 83° WSW 20:11:34 16° SSE
Meteor 1-20 Rocket 4.1 20:06:11 10° N 20:11:48 82° E 20:17:16 10° SSE
Cosmos 1933 3.3 20:08:17 10° S 20:12:20 86° WNW 20:16:23 10° N
MetOp-B 4.4 20:15:10 17° SE 20:19:06 51° ENE 20:24:16 10° N
Cosmos 773 Rocket 4.4 20:14:11 10° N 20:19:19 48° ENE 20:22:41 20° SE
Cosmos 2278 Rocket 2.7 20:18:00 10° S 20:23:10 38° ESE 20:28:21 10° NE
Spot 2 Rocket 4.4 20:22:05 20° ESE 20:24:50 33° ENE 20:29:21 10° N
BREEZE-M DEB (TANK) 4.0 20:24:20 10° NW 20:25:49 15° N 20:27:11 10° NE
Cosmos 1782 2.7 20:22:13 11° S 20:26:00 73° E 20:30:00 10° NNE
Landsat 7 3.9 20:23:02 19° SSE 20:26:23 66° ENE 20:31:07 10° N
Cosmos 1602 3.6 20:23:13 10° N 20:27:06 78° E 20:29:33 22° SSE
IGS 5A 3.4 20:24:31 20° SSE 20:27:20 76° ENE 20:31:30 10° N
Cosmos 1844 Rocket 4.4 20:22:32 10° WSW 20:27:36 35° WNW 20:32:43 10° N
GPS 2-04 Rocket1 3.7 20:24:14 10° SW 20:27:48 29° S 20:28:41 26° SSE
Cosmos 1242 Rocket 3.2 20:25:08 10° SSW 20:28:38 54° WNW 20:32:07 10° N
Cosmos 1515 Rocket 4.2 20:29:37 25° SE 20:31:24 35° E 20:35:25 10° NNE
ERS-1 Rocket 4.2 20:30:20 19° ESE 20:32:33 26° ENE 20:36:41 10° N
BREEZE-M DEB (TANK) 3.2 20:25:56 10° WNW 20:34:11 72° SW 20:35:39 31° SE
CZ-4C R/B 3.2 20:31:01 10° NNW 20:38:14 61° NE 20:43:47 23° SE
IRIS 4.2 20:38:33 10° W 20:40:53 46° SSW 20:40:56 46° S
Cosmos 1633 Rocket 3.0 20:36:32 10° N 20:40:57 88° WSW 20:43:38 23° S
USA 306 4.3 20:43:39 10° NW 20:47:30 32° NNE 20:49:58 18° ENE
ATLAS 5 CENTAUR R/B 2.7 20:41:47 10° NW 20:47:31 61° WSW 20:51:47 23° SSE
Cosmos 1328 Rocket 3.6 20:44:41 14° S 20:48:28 81° W 20:52:54 10° N
Cosmos 1812 2.8 20:47:18 38° SSE 20:48:29 57° E 20:52:17 10° NNE
Cosmos 1777 Rocket 3.9 20:44:56 10° SSW 20:50:07 84° ESE 20:55:21 10° NNE
SWARM A 4.2 20:49:06 10° N 20:52:23 58° E 20:52:42 55° ESE
Cosmos 1470 Rocket 3.5 20:48:46 10° N 20:53:16 72° E 20:55:00 36° SSE
ARIANE 5 R/B 2.8 20:52:22 37° SE 20:53:46 54° ENE 20:58:00 10° N
CRYOSAT 2 4.4 20:53:55 23° S 20:57:00 78° W 21:01:55 10° N
CARTOSAT-1 3.8 20:56:42 40° SE 20:57:57 55° ENE 21:02:11 10° N
Cosmos 1666 3.0 20:56:39 10° N 21:00:14 44° ENE 21:00:28 43° E
Cosmos 1833 Rocket 2.7 20:59:06 10° NNW 21:04:47 74° ENE 21:07:04 37° SE
Cosmos 1437 4.0 21:05:01 25° WSW 21:06:03 34° WNW 21:08:42 10° N
Meteor 1-5 Rocket 4.0 21:00:54 10° N 21:06:17 75° E 21:08:22 38° SSE
Cosmos 1933 Rocket 3.5 21:03:11 10° N 21:07:30 65° E 21:08:26 50° SE
Meteor 1-10 Rocket 4.2 21:05:30 34° SSE 21:07:48 60° E 21:13:22 10° NNE
Cosmos 1536 4.3 21:07:23 10° NNE 21:10:33 24° ENE 21:10:33 24° ENE
USA 307 3.8 21:10:11 10° NW 21:14:17 42° NNE 21:15:37 32° ENE
Cosmos 2184 Rocket 4.0 21:09:02 10° N 21:15:13 65° E 21:17:32 39° SSE
H-2A R/B 4.1 21:14:46 10° NNE 21:18:17 40° E 21:18:17 40° E
Cosmos 2074 Rocket 4.0 21:13:26 10° N 21:19:46 73° E 21:22:14 39° SSE
NOSS 3-4 (A) 4.1 21:13:29 10° NNW 21:20:25 59° NE 21:24:06 32° ESE
NOSS 3-4 (C) 4.1 21:13:35 10° NNW 21:20:31 59° NE 21:24:12 32° ESE
SJ 16-02 1.3 21:19:29 39° SSW 21:21:06 87° WNW 21:25:33 10° NNE
JB-3 4.3 21:17:21 10° N 21:21:15 78° WNW 21:21:59 56° SSW
Nadezhda 1 Rocket 4.2 21:19:52 39° SE 21:21:50 53° E 21:27:53 10° NNE
SPOT 1/Viking Rocket 4.2 21:23:34 28° SSW 21:26:03 50° W 21:31:06 10° NNW
USA 308 3.4 21:23:44 10° NW 21:27:56 51° NNE 21:28:43 45° ENE
Cosmos 1500 4.5 21:26:40 10° NNW 21:30:04 33° W 21:30:59 28° WSW
Iridium 4 Rocket 3.8 21:30:58 36° S 21:33:27 80° W 21:39:24 10° N
Terra 1.8 21:33:01 58° ESE 21:33:40 66° ENE 21:38:23 10° N
ATLAS 2AS CENTAUR R/B 3.5 21:26:48 10° NNW 21:33:49 44° NE 21:37:04 28° E
X-37B 3.0 21:35:54 10° W 21:36:59 17° W 21:36:59 17° W
SPOT 5 3.0 21:38:33 53° S 21:39:45 78° WSW 21:45:02 10° NNW
Cosmos 1610 Rocket 4.4 21:36:29 10° N 21:42:37 70° E 21:44:05 51° SE
Resurs 01 Rocket 4.2 21:40:11 10° SW 21:42:45 15° W 21:45:21 10° NW
Cosmos 2082 Rocket 2.1 21:39:06 10° NNW 21:44:45 79° ENE 21:45:50 59° SE
Cosmos 2228 Rocket 3.0 21:45:35 77° SW 21:45:52 83° W 21:50:20 10° N
Cosmos 158 Rocket 3.6 21:41:27 10° NNW 21:46:22 90° SW 21:46:51 73° SSE
Cosmos 44 4.5 21:45:44 10° NNW 21:50:46 37° NE 21:51:59 33° ENE
COSMOS 2406 3.8 21:45:47 10° NW 21:51:11 47° WSW 21:52:38 38° SSW
Cosmos 1271 Rocket 3.8 21:54:20 38° W 21:54:56 40° WNW 21:58:45 10° N
Meteor 1-27 Rocket 3.8 21:58:45 50° SSW 22:00:21 80° W 22:06:18 10° N
Cosmos 2341 Rocket 4.3 21:56:52 10° N 22:03:08 54° ENE 22:04:08 49° ESE
Cosmos 2278 Rocket 3.8 22:02:14 10° WSW 22:07:16 32° NW 22:12:21 10° N
USA 305 3.5 22:04:05 10° NW 22:07:27 53° WNW 22:07:27 53° WNW
Cosmos 1937 Rocket 3.8 22:09:32 52° ENE 22:09:32 52° ENE 22:13:52 10° NNE
Cosmos 1295 Rocket 4.5 22:03:47 10° N 22:10:10 84° W 22:11:29 59° S
ERS-1 Rocket 3.9 22:10:19 35° WSW 22:11:09 38° W 22:15:50 10° NNW
Milstar 3 4.0 22:00:36 10° WSW 22:10:47 35° SSW 22:10:47 35° SSW
SL-24 R/B - RUBIN 2 4.3 22:07:32 10° NNW 22:12:50 53° NE 22:13:07 52° ENE
Cosmos 1943 Rocket 2.4 22:13:55 54° E 22:13:55 54° E 22:18:50 10° NNE
Cosmos 1680 Rocket 3.4 22:09:22 10° NNW 22:14:43 86° ENE 22:14:52 84° ESE
Cosmos 2369 Rocket 3.5 22:17:10 26° ENE 22:17:10 26° ENE 22:20:30 10° NE
Cosmos 1869 Rocket 4.2 22:12:11 10° NNW 22:16:04 49° WNW 22:16:04 49° WNW
Cosmos 2218 Rocket 4.5 22:11:34 10° N 22:17:36 45° ENE 22:18:16 44° E
Centaur D AC-29 4.2 21:11:11 10° WSW 22:18:38 38° S 22:20:13 37° S
Cosmos 1238 Rocket 3.7 22:19:06 10° N 22:25:10 63° E 22:25:13 63° E
CZ-4C R/B 4.0 22:19:56 10° NW 22:26:45 36° WSW 22:28:58 31° SW
USA 306 4.3 22:23:28 10° WNW 22:26:02 33° WNW 22:26:02 33° WNW
Cosmos 1340 Rocket 3.9 22:28:06 10° NNW 22:31:04 43° NW 22:31:04 43° NW
Cosmos 1707 Rocket 4.2 22:32:59 53° NW 22:32:59 53° NW 22:36:40 10° N
Cosmos 1818 3.9 22:28:30 10° NNW 22:33:53 54° NE 22:34:12 53° ENE
DNEPR-1 R/B 4.0 22:34:46 87° WSW 22:34:52 88° WNW 22:40:01 10° NNE
ALOS 2 4.0 22:41:06 31° NE 22:41:06 31° NE 22:44:13 10° N
SL-8 Rocket 3.8 22:34:41 10° N 22:41:04 81° E 22:41:32 75° SE
Meteor 2-4 Rocket 4.2 22:47:05 48° ENE 22:47:05 48° ENE 22:51:57 10° NNE
Cosmos 1898 Rocket 4.3 22:47:28 42° W 22:48:21 46° WNW 22:53:29 10° N
Cosmos 1975 4.4 22:58:11 10° N 23:00:28 33° N 23:00:28 33° N
RESURS DK-1 4.3 23:00:43 10° N 23:03:31 24° NE 23:03:31 24° NE
Cosmos 1461 4.0 23:07:22 47° N 23:07:22 47° N 23:10:47 10° NNE
Cosmos 1733 Rocket 4.4 23:02:01 10° NNW 23:04:54 35° NW 23:04:54 35° NW
Cosmos 372 Rocket 4.3 23:07:02 63° N 23:07:02 63° N 23:11:22 10° NNE
Cosmos 864 Rocket 4.3 23:02:15 10° N 23:08:24 80° W 23:08:29 79° WSW
SeaSat 1 4.3 23:06:23 10° NE 23:08:32 21° ENE 23:08:32 21° ENE
Cosmos 1959 Rocket 4.4 23:04:56 10° N 23:11:10 74° W 23:11:16 73° WSW
Terra 4.2 23:11:54 13° W 23:11:54 13° W 23:14:06 10° WNW
Meteor 1-18 Rocket 4.5 23:16:27 59° WNW 23:16:27 59° WNW 23:21:59 10° N
USA 215 4.2 23:13:57 15° E 23:18:58 44° NNE 23:25:05 10° NW
ATLAS 2AS CENTAUR R/B 3.3 23:18:02 10° NW 23:24:29 43° WSW 23:24:29 43° WSW
Cosmos 1867 4.0 23:25:56 56° NE 23:25:56 56° NE 23:30:15 10° NE
Cosmos 1125 Rocket 4.4 23:26:49 40° ENE 23:26:49 40° ENE 23:30:31 10° NNE
Nimbus 7 Rocket 4.4 23:21:04 10° NNE 23:26:37 73° ENE 23:26:37 73° ENE
Cosmos 2082 Rocket 4.3 23:25:17 10° WNW 23:27:41 14° W 23:27:41 14° W
ATLAS CENTAUR R/B 3.8 23:38:29 16° NE 23:38:29 16° NE 23:39:18 10° NE
Cosmos 1821 Rocket 3.9 23:34:53 10° N 23:41:21 85° E 23:41:25 85° ESE
Cosmos 1934 Rocket 4.4 23:35:57 10° N 23:41:52 47° ENE 23:42:10 47° E
Lacrosse 5 3.8 23:54:52 21° ENE 23:54:52 21° ENE 23:56:47 10° ENE
